Miscellaneous Local Product
Issued by NWS Hastings, NE

Home | Current Version | Previous Version | Graphics & Text | Print | Product List | Glossary On
Versions: 1 2 3 4 5 6 7 8 9 10 11 12 13 14 15 16 17 18 19 20 21 22 23 24 25 26 27 28 29 30 31 32 33 34 35 36 37 38 39 40 41 42 43 44 45 46 47 48 49 50
045
AXUS43 KGID 241002
MISGRI

GID CWA HOURLY WEATHER ROUNDUP
NATIONAL WEATHER SERVICE HASTINGS NE
500 AM CDT FRI MAR 24 2017

NOTE: "FAIR" INDICATES FEW OR NO CLOUDS BELOW 12,000 FEET WITH NO
SIGNIFICANT WEATHER AND/OR OBSTRUCTIONS TO VISIBILITY.

...SOUTH CENTRAL NEBRASKA...

CITY           SKY/WX    TMP DP  RH WIND       PRES   REMARKS
GRAND ISLAND   CLOUDY    53  53 100 NE14      29.72F
HASTINGS       CLOUDY    54  52  93 NE12      29.72F
KEARNEY        CLOUDY    54  48  82 NE13      29.73R
ORD            CLOUDY    48  45  89 N21       29.80S
YORK           LGT RAIN  55  55 100 NE14      29.74S
AURORA         CLOUDY    54  53  97 NE14      29.72F
LEXINGTON      CLOUDY    53  50  91 N23       29.73S
HOLDREGE       CLOUDY    53  51  94 NE16      29.71R
HEBRON         LGT RAIN  58  55  88 N12       29.72R

...NEBRASKA PANHANDLE...

CITY           SKY/WX    TMP DP  RH WIND       PRES   REMARKS
CHADRON        CLOUDY    40  37  89 N5        30.00R
ALLIANCE       CLOUDY    40  38  93 N20G30    29.92R WCI  30
SCOTTSBLUFF    CLOUDY    42  37  82 N18G25    29.96R
SIDNEY         LGT RAIN  41  38  89 N20G30    29.86R

...WESTERN AND NORTH CENTRAL NEBRASKA...

CITY           SKY/WX    TMP DP  RH WIND       PRES   REMARKS
VALENTINE      CLOUDY    42  36  79 N9        29.91R
AINSWORTH      CLOUDY    40  40  98 N10       29.89R WCI  34
ONEILL         DRIZZLE   42  41  96 N18       29.85R
BROKEN BOW     LGT RAIN  49  46  90 N18G26    29.78S
IMPERIAL       LGT RAIN  49  46  90 NE30G37   29.74R FOG
NORTH PLATTE   CLOUDY    48  45  89 NE20G26   29.78F
MCCOOK         CLOUDY    52  51  97 NE21G29   29.68

...EASTERN NEBRASKA...

CITY           SKY/WX    TMP DP  RH WIND       PRES   REMARKS
NORFOLK        LGT RAIN  48  46  93 N13       29.78R
SO SIOUX CITY  LGT RAIN  47  47 100 N10       29.78R
TEKAMAH        LGT RAIN  51  49  92 N8        29.74F
COLUMBUS       CLOUDY    54  52  94 E7        29.75F
ALBION         CLOUDY    50  47  88 N14       29.78F
OMAHA EPPLEY   CLOUDY    54  50  86 NW7       29.74F
OFFUTT AFB     CLOUDY    59  54  84 NW5       29.74R
MILLARD        LGT RAIN  59  56  91 CALM      29.75R
LINCOLN        CLOUDY    59  56  89 NE8       29.73F
NEBRASKA CITY  CLOUDY    62  43  49 SW3       29.72S
BEATRICE       CLOUDY    62  51  68 W6        29.71R
FALLS CITY     CLOUDY    66  49  54 S12       29.71F

...NORTHERN KANSAS...

CITY           SKY/WX    TMP DP  RH WIND       PRES   REMARKS
GOODLAND       CLOUDY    49  48  97 NE25G36   29.61S
HILL CITY      CLOUDY    54  54 100 E9        29.64R
NORTON         CLOUDY    54  48  82 NE17G25   29.64
PHILLIPSBURG   MOCLDY    55  55 100 NE10      29.66R
HAYS             N/A     58  46  64 E9        29.61F
RUSSELL        CLOUDY    64  45  49 SE15      29.60F
CONCORDIA      CLOUDY    67  47  48 S20G26    29.68R
SALINA         CLOUDY    70  44  39 S21G30    29.65F
TOPEKA         PTCLDY    67  50  54 S13       29.72F



USA.gov is the U.S. government's official web portal to all federal, state and local government web resources and services.